Weather History for Mineral Wells, TX

Change the Weather History Date:

Wednesday, January 22, 2014

  Actual Average Record
Temperature  
Mean Temperature 46 °F -  
Max Temperature 64 °F 56 °F 84 °F (2009)
Min Temperature 27 °F 33 °F 19 °F (2011)
Degree Days  
Heating Degree Days 20    
Moisture  
Dew Point 23 °F    
Average Humidity 47    
Maximum Humidity 81    
Minimum Humidity 18    
Precipitation  
Precipitation 0.00 in - - ()
Sea Level Pressure  
Sea Level Pressure 30.07 in    
Wind  
Wind Speed 6 mph (ENE)    
Max Wind Speed 18 mph    
Max Gust Speed 26 mph    
Visibility 10 miles    
Events      
Averages and records for this station are not official NWS values.
T = Trace of Precipitation, MM = Missing Value Source: NWS Daily Summary

Daily Weather History Graph

Daily Weather History Graph

Search for Another Location

Airport:

Trip Planner

Search our weather history database for the weather conditions in past years. The results will help you decide how hot, cold, wet, or windy it might be!

Date:

Astronomy

Jan. 22, 2014 Rise Set
Actual Time 7:32 AM CST 5:55 PM CST
Civil Twilight 7:06 AM CST 6:21 PM CST
Nautical Twilight 6:36 AM CST 6:51 PM CST
Astronomical Twilight 6:06 AM CST 7:21 PM CST
Moon No Moon Rise 10:56 AM CST (1/22)
Length of Visible Light 11h 15m
Length of Day
10h 22m
Waning Gibbous, 65% of the Moon is Illuminated
Jan 22
Waning Gibbous
Jan 23
Last Quarter
Jan 30
New
Feb 6
First Quarter
Feb 14
Full

Hourly Weather History & Observations

Time (CST) Temp. Windchill Dew Point Humidity Pressure Visibility Wind Dir Wind Speed Gust Speed Precip Events Conditions
12:53 AM 32.0 °F 26.4 °F 21.9 °F 66% 30.13 in 10.0 mi SE 5.8 mph - N/A   Clear
1:53 AM 32.0 °F 24.2 °F 23.0 °F 69% 30.11 in 10.0 mi SE 9.2 mph - N/A   Clear
2:53 AM 30.9 °F - 21.9 °F 69% 30.11 in 10.0 mi Calm Calm - N/A   Clear
3:53 AM 33.1 °F 26.1 °F 23.0 °F 66% 30.09 in 10.0 mi SSE 8.1 mph - N/A   Clear
4:53 AM 30.9 °F 26.2 °F 23.0 °F 72% 30.07 in 10.0 mi SSE 4.6 mph - N/A   Clear
5:53 AM 28.0 °F - 21.9 °F 78% 30.08 in 10.0 mi Calm Calm - N/A   Clear
6:53 AM 28.0 °F - 21.9 °F 78% 30.09 in 10.0 mi Calm Calm - N/A   Clear
7:53 AM 27.0 °F - 21.9 °F 81% 30.10 in 10.0 mi Calm Calm - N/A   Clear
8:53 AM 39.9 °F 37.8 °F 26.1 °F 58% 30.09 in 10.0 mi South 3.5 mph - N/A   Clear
9:53 AM 45.0 °F 43.5 °F 27.0 °F 49% 30.10 in 10.0 mi West 3.5 mph - N/A   Clear
10:53 AM 53.1 °F - 26.1 °F 35% 30.10 in 10.0 mi Variable 3.5 mph - N/A   Clear
11:53 AM 59.0 °F - 21.0 °F 23% 30.09 in 10.0 mi NNW 5.8 mph - N/A   Clear
12:53 PM 62.1 °F - 19.0 °F 19% 30.04 in 10.0 mi NW 6.9 mph - N/A   Clear
1:53 PM 62.1 °F - 19.0 °F 19% 30.00 in 10.0 mi Variable 3.5 mph - N/A   Clear
2:53 PM 64.9 °F - 19.9 °F 18% 29.99 in 10.0 mi Variable 5.8 mph - N/A   Clear
3:53 PM 62.1 °F - 24.1 °F 23% 29.98 in 10.0 mi NE 11.5 mph - N/A   Clear
4:53 PM 57.0 °F - 24.1 °F 28% 30.00 in 10.0 mi NE 15.0 mph - N/A   Clear
5:53 PM 53.1 °F - 27.0 °F 37% 30.02 in 10.0 mi NE 10.4 mph - N/A   Clear
6:53 PM 48.9 °F - 26.1 °F 41% 30.04 in 10.0 mi NE 13.8 mph - N/A   Clear
7:53 PM 48.9 °F - 25.0 °F 39% 30.06 in 10.0 mi NE 11.5 mph - N/A   Clear
8:53 PM 46.9 °F - 24.1 °F 41% 30.08 in 10.0 mi NE 12.7 mph - N/A   Clear
9:53 PM 45.0 °F 38.9 °F 21.9 °F 40% 30.10 in 10.0 mi NE 12.7 mph - N/A   Clear
10:53 PM 45.0 °F 37.4 °F 19.9 °F 37% 30.11 in 10.0 mi NE 18.4 mph 26.5 mph N/A   Clear
11:53 PM 44.1 °F 36.2 °F 21.0 °F 40% 30.12 in 10.0 mi NE 18.4 mph 24.2 mph N/A   Clear